Regional Weather Roundup
Issued by NWS

Home | Current Version | Previous Version | Graphics & Text | Print | Product List | Glossary On
Versions: 1 2 3 4 5 6 7 8 9 10 11 12 13 14 15 16 17 18 19 20 21 22 23 24 25 26 27 28 29 30 31 32 33 34 35 36 37 38 39 40 41 42 43 44 45 46 47 48 49 50
000
ASUS43 KIND 250259
RWRIN

WEATHER ROUNDUP FOR INDIANA
NATIONAL WEATHER SERVICE INDIANAPOLIS IN
1100 PM EDT SUN JUL 24 2016

NOTE: "FAIR" INDICATES FEW OR NO CLOUDS BELOW 12,000 FEET WITH NO
SIGNIFICANT WEATHER AND/OR OBSTRUCTIONS TO VISIBILITY.

* - STATION DOES NOT REPORT WEATHER SUCH AS PRECIPITATION OR FOG.

+ - STATION NOT QUALITY CONTROLLED BY THE NATIONAL WEATHER SERVICE.
    USE DATA WITH CAUTION...ESPECIALLY DEWPOINT AND RELATIVE
    HUMIDITY OBSERVATIONS.

INZ001>003-010>013-019-020-250400-
NORTHWEST INDIANA

CITY           SKY/WX    TMP DP  RH WIND       PRES   REMARKS
GARY /AIRPORT/ MOCLDY    70 N/A N/A SW8       29.91R
KNOX *+        CLOUDY    70  59  68 SW12      29.89F
MONTICELLO +   MOCLDY    81  74  79 N9        29.94R

$$

LMZ046-743>745-250400-
SOUTHERN LAKE MICHIGAN

STATION/POSITION TIME  TEMP    WIND        PRES    WAVE
                       AIR SEA DIR/SP/G            HT
                 (UTC) (F)     (DEG/KT/KT) (MB)    (FT)
BURNS HARBOR     0221   75     200/ 15/ 18 1012.2F
MICHIGAN CITY    0200   75     250/ 13/ 14   N/A
5NW MICH CITY    0200   76 74  220/ 14/ 21   N/A     5

$$

INZ004-005-014>016-021>024-250400-
NORTH CENTRAL INDIANA

CITY           SKY/WX    TMP DP  RH WIND       PRES   REMARKS
GOSHEN         CLOUDY    83  75  77 S8        29.90F
SOUTH BEND     CLOUDY    75  65  70 SW5       29.92R

$$

INZ006>009-017-018-025>027-250400-
NORTHEAST INDIANA

CITY           SKY/WX    TMP DP  RH WIND       PRES   REMARKS
ANGOLA *+        N/A     81  73  78 S3        29.93S
FORT WAYNE     MOCLDY    82  75  79 SW8       29.94R

$$

INZ028-029-035-036-043>045-051>053-250400-
WEST CENTRAL INDIANA

CITY           SKY/WX    TMP DP  RH WIND       PRES   REMARKS
CRAWFORDSVL +  CLEAR     77  77 100 S3        29.96R
LAFAYETTE      CLOUDY    82  78  88 SW5       29.94R
TERRE HAUTE    CLEAR     82  76  81 S7        29.95S

$$

INZ030>032-037>040-046>048-054>057-064-065-250400-
CENTRAL INDIANA

CITY           SKY/WX    TMP DP  RH WIND       PRES   REMARKS
INDIANAPOLIS   PTCLDY    81  76  84 SW8       29.96S
-EAGLE CREEK   CLEAR     84  76  76 SW6       29.95S
KOKOMO *+      CLEAR     82  72  69 SW10      29.94S
SHELBYVILLE    CLEAR     81  76  84 CALM      29.97R

$$

INZ033-034-041-042-049-050-058-059-250400-
EAST CENTRAL INDIANA

CITY           SKY/WX    TMP DP  RH WIND       PRES   REMARKS
MUNCIE         CLEAR     84  76  76 SW7       29.96S

$$

INZ060-061-067>069-081>083-085>088-250400-
SOUTHWEST INDIANA

CITY           SKY/WX    TMP DP  RH WIND       PRES   REMARKS
EVANSVILLE     CLEAR     84  75  74 CALM      29.97R
HUNTINGBURG *+ CLEAR     82  73  74 S6        29.97S

$$

INZ062-063-066-070>080-084-089>092-250400-
SOUTH CENTRAL AND SOUTHEAST INDIANA

CITY           SKY/WX    TMP DP  RH WIND       PRES   REMARKS
BLOOMINGTON    CLEAR     79  75  87 CALM      29.98R
MADISON *+     CLEAR     79  75  89 CALM      30.01S

$$




USA.gov is the U.S. government's official web portal to all federal, state and local government web resources and services.